Alajuela, Costa Rica

3:16 AM CST on May 23, 2017 (GMT -0600)
Alajuela

Weather History for 78762 - August, 2013

Change the Weather History Date:

Tuesday, August 27, 2013

  Actual Average Record
Temperature  
Mean Temperature 72 °F -  
Max Temperature 80 °F 79 °F - ()
Min Temperature 64 °F 63 °F - ()
Cooling Degree Days 7    
Growing Degree Days 22 (Base 50)    
Moisture  
Dew Point 64 °F    
Average Humidity 82    
Maximum Humidity 100    
Minimum Humidity 39    
Precipitation  
Precipitation 1.02 in 0.46 in - ()
Sea Level Pressure  
Sea Level Pressure 29.96 in    
Wind  
Wind Speed 5 mph ()    
Max Wind Speed 13 mph    
Max Gust Speed -    
Visibility 7.1 miles    
Events Fog , Rain , Thunderstorm    
T = Trace of Precipitation, MM = Missing Value Source: Averaged Metar Reports

Daily Weather History Graph

Daily Weather History Graph

Search for Another Location

Airport or City:

Trip Planner

Search our weather history database for the weather conditions in past years. The results will help you decide how hot, cold, wet, or windy it might be!

Date:

Astronomy

Aug. 27, 2013 Rise Set
Actual Time 5:27 AM CST 5:48 PM CST
Civil Twilight 5:06 AM CST 6:09 PM CST
Nautical Twilight 4:41 AM CST 6:34 PM CST
Astronomical Twilight 4:16 AM CST 6:59 PM CST
Moon 11:02 PM CST (8/27) 11:05 AM CST (8/27)
Length of Visible Light 13h 03m
Length of Day
12h 20m
Waning Gibbous, 56% of the Moon is Illuminated
Aug 27
Waning Gibbous
Aug 28
Last Quarter
Sep 5
New
Sep 12
First Quarter
Sep 19
Full

Hourly Weather History & Observations

Time (CST) Temp. Dew Point Humidity Pressure Visibility Wind Dir Wind Speed Gust Speed Precip Events Conditions
12:00 AM 67 °F 64 °F 86% 29.87 in 12 mi East 3.5 mph - - Fog Patches of Fog
12:00 AM 68.0 °F 64.4 °F 88% 30.03 in 6.2 mi East 3.5 mph - N/A Fog Patches of Fog
1:00 AM 68.0 °F 64.4 °F 88% 30.01 in 6.2 mi ENE 2.3 mph - N/A   Mostly Cloudy
2:00 AM 66.2 °F 64.4 °F 94% 29.99 in 6.2 mi NNE 3.5 mph - N/A   Mostly Cloudy
3:00 AM 67 °F 64 °F 89% 29.82 in 12 mi East 3.5 mph - -   Overcast
3:00 AM 68.0 °F 64.4 °F 88% 29.98 in 6.2 mi East 3.5 mph - N/A   Mostly Cloudy
4:00 AM 68.0 °F 64.4 °F 88% 29.98 in 6.2 mi NE 3.5 mph - N/A   Mostly Cloudy
5:00 AM 66.2 °F 60.8 °F 83% 29.99 in 6.2 mi East 6.9 mph - N/A   Scattered Clouds
6:00 AM 65 °F 60 °F 80% 29.86 in 12 mi ENE 8.1 mph - -   Partly Cloudy
6:00 AM 64.4 °F 60.8 °F 88% 29.99 in - ENE 8.1 mph - N/A   Clear
7:00 AM 68.0 °F 60.8 °F 78% 30.00 in - ENE 4.6 mph - N/A   Clear
8:00 AM 71.6 °F 60.8 °F 69% 30.02 in - East 5.8 mph - N/A   Clear
9:00 AM 79 °F 63 °F 49% 29.83 in 12 mi East 3.5 mph - -   Clear
9:00 AM 78.8 °F 62.6 °F 57% 30.02 in - East 3.5 mph - N/A   Clear
10:00 AM 75.2 °F 66.2 °F 73% 30.04 in 6.2 mi SW 11.5 mph - N/A   Mostly Cloudy
11:00 AM 77.0 °F 66.2 °F 69% 30.03 in 6.2 mi WSW 9.2 mph - N/A   Mostly Cloudy
12:00 PM 78 °F 66 °F 57% 29.83 in 12 mi SW 8.1 mph - -   Partly Cloudy
12:00 PM 78.8 °F 66.2 °F 65% 30.00 in 6.2 mi SW 8.1 mph - N/A   Mostly Cloudy
1:00 PM 77.0 °F 50.0 °F 39% 29.98 in 6.2 mi West 8.1 mph - N/A   Mostly Cloudy
2:00 PM 75.2 °F 68.0 °F 78% 29.96 in 6.2 mi WSW 9.2 mph - N/A   Mostly Cloudy
3:00 PM 74 °F 67 °F 74% 29.86 in 9 mi WSW 13.4 mph - -   Partly Cloudy
3:00 PM 73.4 °F 68.0 °F 83% 29.96 in 6.2 mi WSW 6.9 mph - N/A   Mostly Cloudy
3:13 PM 69.8 °F 69.8 °F 100% 2.99 in 1.2 mi WSW 9.2 mph - N/A Rain Rain
3:28 PM 68.0 °F 68.0 °F 100% - 0.3 mi SW 9.2 mph - N/A Rain Rain Showers
4:00 PM 66.2 °F 64.4 °F 94% 29.97 in 1.2 mi North 2.3 mph - N/A Rain , Thunderstorm Thunderstorms and Rain
4:10 PM 66.2 °F 66.2 °F 100% 29.97 in 6.2 mi NNE 4.6 mph - N/A Rain Light Rain
5:00 PM 66.2 °F 66.2 °F 100% 29.99 in 6.2 mi ESE 3.5 mph - N/A   Mostly Cloudy
6:00 PM 66 °F 65 °F 94% 29.88 in 9 mi ESE 4.6 mph - - Rain Light Rain
6:00 PM 66.2 °F 64.4 °F 94% 29.98 in 6.2 mi ESE 4.6 mph - N/A   Mostly Cloudy
7:00 PM 68.0 °F 64.4 °F 88% 29.99 in 6.2 mi ENE 5.8 mph - N/A   Mostly Cloudy
8:00 PM 68.0 °F 64.4 °F 88% 30.00 in 6.2 mi ENE 5.8 mph - N/A   Mostly Cloudy
9:00 PM 68 °F 63 °F 80% 29.86 in 12 mi East 6.9 mph - -   Mostly Cloudy
9:00 PM 68.0 °F 62.6 °F 83% 30.01 in - East 6.9 mph - N/A   Clear
10:00 PM 68.0 °F 62.6 °F 83% 30.02 in - NNW 2.3 mph - N/A   Clear
11:00 PM 68.0 °F 64.4 °F 88% 30.01 in - Calm Calm - N/A   Clear